sat.trackr.live / text

‹ back to catalog

STARLINK-32691

NORAD 62501 · 2025-003Q

PAYLOAD ACTIVE UNKNOWN

§ Identity

Operator
Country
US
Launch date
2025-01-06
Launch site
AFETR
Launch vehicle
Mass (kg)
RCS (m²)

Purposes: comms

External: N2YO · Heavens-Above · Gunter

§ Orbital elements

Epoch: 2026-05-25T04:51:48.469248Z

Period
94.27 min
Inclination
43.0002°
Eccentricity
0.0001448
Mean motion
15.27601597 rev/d
Perigee alt
482.0 km
Apogee alt
484.0 km
Semi-major
6,861.1 km
B*
5.1236e-4
RAAN
216.8270°
Arg perigee
275.7200°
Mean anomaly
84.3486°
Rev number
7,836

§ Raw data

STARLINK-326911 62501U 25003Q   26145.20264432  .00013873  00000+0  51236-3 0  99962 62501  43.0002 216.8270 0001448 275.7200  84.3486 15.27601597 78361

JSON: /api/v1/satellites/62501 · /tle

For live sub-satellite position, see the globe view (requires WebGL).

§ Visibility from observer

Set your observer location to see the next 7 days of passes ≥ 10°. The values pass through the URL so the page stays shareable.

No JS? Fill the form by hand. The geolocation button needs JavaScript.